| time (UTC) | temp C | wind direction | speed KPH | gust KPH | rain 1hr cm | rain 24hr cm | rain mn cm | humidity % | barometer mb |
| 20260502183208 | 16 | 1 | 8.0 | 11.3 | 0.00 | 0.00 | 0.00 | 46 | 991.8 |
| 20260502182704 | 15 | 7 | 3.2 | 16.1 | 0.00 | 0.00 | 0.00 | 47 | 991.7 |
| 20260502182159 | 16 | 0 | 4.8 | 9.7 | 0.00 | 0.00 | 0.00 | 46 | 991.7 |
| 20260502181657 | 16 | 348 | 4.8 | 11.3 | 0.00 | 0.00 | 0.00 | 48 | 991.9 |
| 20260502181156 | 15 | 46 | 4.8 | 16.1 | 0.00 | 0.00 | 0.00 | 46 | 991.8 |
| 20260502180653 | 15 | 350 | 9.7 | 17.7 | 0.00 | 0.00 | 0.00 | 44 | 991.8 |
| 20260502180150 | 16 | 32 | 9.7 | 14.5 | 0.00 | 0.00 | 0.00 | 48 | 991.8 |
| 20260502170114 | 15 | 31 | 8.0 | 19.3 | 0.00 | 0.00 | 0.00 | 45 | 992.3 |
| 20260502164101 | 15 | 160 | 0.0 | 8.0 | 0.00 | 0.00 | 0.00 | 55 | 992.0 |
| 20260502163556 | 15 | 339 | 0.0 | 11.3 | 0.00 | 0.00 | 0.00 | 57 | 991.9 |
| 20260502163053 | 15 | 354 | 6.4 | 14.5 | 0.00 | 0.00 | 0.00 | 56 | 991.9 |
| 20260502162550 | 15 | 5 | 3.2 | 8.0 | 0.00 | 0.00 | 0.00 | 54 | 992.3 |
| 20260502162048 | 14 | 319 | 4.8 | 16.1 | 0.00 | 0.00 | 0.00 | 56 | 992.2 |
| 20260502161544 | 15 | 55 | 6.4 | 12.9 | 0.00 | 0.00 | 0.00 | 57 | 992.1 |
| 20260502161042 | 14 | 315 | 6.4 | 12.9 | 0.00 | 0.00 | 0.00 | 56 | 992.1 |
| 20260502160540 | 14 | 315 | 3.2 | 12.9 | 0.00 | 0.00 | 0.00 | 54 | 991.9 |
| 20260502151947 | 13 | 316 | 4.8 | 12.9 | 0.00 | 0.00 | 0.00 | 59 | 991.9 |
| 20260502151444 | 13 | 322 | 11.3 | 14.5 | 0.00 | 0.00 | 0.00 | 63 | 992.1 |
| 20260502150941 | 13 | 0 | 3.2 | 14.5 | 0.00 | 0.00 | 0.00 | 61 | 992.1 |
| 20260502150438 | 13 | 236 | 3.2 | 9.7 | 0.00 | 0.00 | 0.00 | 61 | 991.9 |
| 20260502130323 | 8 | 323 | 1.6 | 11.3 | 0.00 | 0.00 | 0.00 | 79 | 991.3 |
| 20260502123809 | 8 | 12 | 4.8 | 6.4 | 0.00 | 0.00 | 0.00 | 83 | 991.2 |
| 20260502123306 | 7 | 359 | 4.8 | 11.3 | 0.00 | 0.00 | 0.00 | 84 | 991.0 |
| 20260502122803 | 7 | 12 | 6.4 | 11.3 | 0.00 | 0.00 | 0.00 | 85 | 991.0 |
| 20260502122259 | 7 | 7 | 3.2 | 4.8 | 0.00 | 0.00 | 0.00 | 87 | 991.1 |
| 20260502121757 | 6 | 14 | 3.2 | 8.0 | 0.00 | 0.00 | 0.00 | 90 | 991.1 |
| 20260502121254 | 6 | 47 | 0.0 | 4.8 | 0.00 | 0.00 | 0.00 | 92 | 990.9 |
| 20260502120751 | 6 | 52 | 0.0 | 4.8 | 0.00 | 0.00 | 0.00 | 93 | 990.5 |
| 20260502120248 | 5 | 21 | 3.2 | 6.4 | 0.00 | 0.00 | 0.00 | 94 | 990.8 |
| 20260502115746 | 5 | 110 | 0.0 | 4.8 | 0.00 | 0.00 | 0.00 | 95 | 990.7 |
| 20260502115242 | 5 | 89 | 0.0 | 3.2 | 0.00 | 0.00 | 0.00 | 95 | 990.7 |
| 20260502114738 | 5 | 97 | 0.0 | 4.8 | 0.00 | 0.00 | 0.00 | 94 | 990.7 |
| 20260502114235 | 5 | 257 | 0.0 | 1.6 | 0.00 | 0.00 | 0.00 | 94 | 990.7 |
| 20260502113732 | 5 | 98 | 1.6 | 3.2 | 0.00 | 0.00 | 0.00 | 94 | 990.6 |
| 20260502113230 | 5 | 87 | 0.0 | 3.2 | 0.00 | 0.00 | 0.00 | 93 | 990.4 |
| 20260502112728 | 5 | 87 | 0.0 | 4.8 | 0.00 | 0.00 | 0.00 | 92 | 990.5 |
| 20260502112226 | 5 | 102 | 0.0 | 3.2 | 0.00 | 0.00 | 0.00 | 91 | 990.5 |
| 20260502111723 | 5 | 70 | 1.6 | 6.4 | 0.00 | 0.00 | 0.00 | 91 | 990.4 |
| 20260502111220 | 5 | 63 | 3.2 | 4.8 | 0.00 | 0.00 | 0.00 | 93 | 990.4 |
| 20260502110717 | 5 | 17 | 0.0 | 6.4 | 0.00 | 0.00 | 0.00 | 95 | 990.5 |
| 20260502110215 | 5 | 14 | 3.2 | 6.4 | 0.00 | 0.00 | 0.00 | 98 | 990.3 |
| 20260502105713 | 4 | 64 | 1.6 | 4.8 | 0.00 | 0.00 | 0.00 | 99 | 990.2 |
| 20260502105209 | 4 | 108 | 4.8 | 4.8 | 0.00 | 0.00 | 0.00 | 99 | 990.3 |
| 20260502104707 | 4 | 98 | 1.6 | 4.8 | 0.00 | 0.00 | 0.00 | 99 | 990.2 |
| 20260502104204 | 3 | 72 | 0.0 | 4.8 | 0.00 | 0.00 | 0.00 | 98 | 990.1 |
| 20260502103701 | 3 | 69 | 0.0 | 3.2 | 0.00 | 0.00 | 0.00 | 98 | 990.0 |
| 20260502103159 | 3 | 77 | 0.0 | 3.2 | 0.00 | 0.00 | 0.00 | 98 | 989.9 |
| 20260502102656 | 3 | 76 | 0.0 | 1.6 | 0.00 | 0.00 | 0.00 | 98 | 989.9 |
| 20260502102153 | 3 | 89 | 0.0 | 3.2 | 0.00 | 0.00 | 0.00 | 98 | 990.0 |
| 20260502101651 | 3 | 76 | 0.0 | 3.2 | 0.00 | 0.00 | 0.00 | 98 | 989.9 |
| 20260502101148 | 3 | 95 | 0.0 | 3.2 | 0.00 | 0.00 | 0.00 | 98 | 989.9 |
| 20260502100647 | 3 | 71 | 1.6 | 3.2 | 0.00 | 0.00 | 0.00 | 98 | 989.8 |
| 20260502100145 | 3 | 49 | 1.6 | 4.8 | 0.00 | 0.00 | 0.00 | 98 | 989.9 |
| 20260502091119 | 4 | 73 | 0.0 | 3.2 | 0.00 | 0.00 | 0.00 | 97 | 989.6 |
| 20260502090615 | 4 | 79 | 0.0 | 3.2 | 0.00 | 0.00 | 0.00 | 97 | 989.6 |
| 20260502090113 | 4 | 84 | 1.6 | 3.2 | 0.00 | 0.00 | 0.00 | 97 | 989.4 |
| 20260502071510 | 5 | 89 | 0.0 | 3.2 | 0.00 | 0.00 | 0.00 | 97 | 989.5 |
| 20260502071008 | 5 | 88 | 1.6 | 1.6 | 0.00 | 0.00 | 0.00 | 97 | 989.4 |
| 20260502070506 | 5 | 107 | 0.0 | 1.6 | 0.00 | 0.00 | 0.00 | 96 | 989.2 |
| 20260502070004 | 5 | 69 | 0.0 | 3.2 | 0.00 | 0.00 | 0.00 | 96 | 989.5 |
| 20260502065502 | 5 | 104 | 0.0 | 1.6 | 0.00 | 0.00 | 0.00 | 96 | 989.3 |
| 20260502065000 | 5 | 39 | 0.0 | 3.2 | 0.00 | 0.00 | 0.00 | 96 | 989.4 |
| 20260502064458 | 5 | 76 | 0.0 | 1.6 | 0.00 | 0.00 | 0.00 | 96 | 989.6 |
| 20260502063954 | 5 | 70 | 1.6 | 3.2 | 0.00 | 0.00 | 0.00 | 96 | 989.5 |
| 20260502063452 | 5 | 29 | 3.2 | 3.2 | 0.00 | 0.00 | 0.00 | 96 | 989.8 |
| 20260502062950 | 5 | 116 | 0.0 | 3.2 | 0.00 | 0.00 | 0.00 | 96 | 989.5 |
| 20260502062447 | 5 | 135 | 0.0 | 3.2 | 0.00 | 0.00 | 0.00 | 96 | 989.7 |
| 20260502061945 | 5 | 147 | 0.0 | 3.2 | 0.00 | 0.00 | 0.00 | 96 | 989.7 |
| 20260502061443 | 5 | 42 | 0.0 | 3.2 | 0.00 | 0.00 | 0.00 | 96 | 989.8 |
| 20260502060938 | 5 | 114 | 0.0 | 1.6 | 0.00 | 0.00 | 0.00 | 95 | 989.5 |
| 20260502060434 | 6 | 41 | 0.0 | 3.2 | 0.00 | 0.00 | 0.00 | 95 | 989.7 |
| 20260502055931 | 6 | 49 | 0.0 | 3.2 | 0.00 | 0.00 | 0.00 | 94 | 989.6 |
| 20260502055429 | 6 | 74 | 0.0 | 3.2 | 0.00 | 0.00 | 0.00 | 94 | 989.7 |
| 20260502054923 | 6 | 124 | 0.0 | 3.2 | 0.00 | 0.00 | 0.00 | 94 | 989.7 |
| 20260502054421 | 6 | 89 | 0.0 | 3.2 | 0.00 | 0.00 | 0.00 | 93 | 989.7 |
| 20260502053918 | 6 | 82 | 1.6 | 1.6 | 0.00 | 0.00 | 0.00 | 93 | 989.6 |
| 20260502053415 | 6 | 89 | 0.0 | 3.2 | 0.00 | 0.00 | 0.00 | 93 | 989.7 |
| 20260502052912 | 6 | 76 | 0.0 | 3.2 | 0.00 | 0.00 | 0.00 | 93 | 989.8 |
| 20260502052411 | 6 | 80 | 0.0 | 1.6 | 0.00 | 0.00 | 0.00 | 92 | 989.7 |
| 20260502051908 | 6 | 95 | 0.0 | 3.2 | 0.00 | 0.00 | 0.00 | 92 | 989.7 |
| 20260502051407 | 6 | 102 | 0.0 | 3.2 | 0.00 | 0.00 | 0.00 | 92 | 989.5 |
| 20260502050903 | 6 | 89 | 0.0 | 1.6 | 0.00 | 0.00 | 0.00 | 92 | 989.7 |
| 20260502050359 | 6 | 76 | 0.0 | 1.6 | 0.00 | 0.00 | 0.00 | 91 | 989.7 |
| 20260502045856 | 6 | 76 | 0.0 | 3.2 | 0.00 | 0.00 | 0.00 | 91 | 989.6 |
| 20260502045353 | 7 | 95 | 0.0 | 1.6 | 0.00 | 0.00 | 0.00 | 91 | 989.7 |
| 20260502044850 | 7 | 94 | 0.0 | 1.6 | 0.00 | 0.00 | 0.00 | 90 | 989.7 |
| 20260502044346 | 7 | 102 | 0.0 | 3.2 | 0.00 | 0.00 | 0.00 | 89 | 989.7 |
| 20260502043843 | 7 | 114 | 0.0 | 1.6 | 0.00 | 0.00 | 0.00 | 89 | 989.7 |
| 20260502043341 | 7 | 89 | 0.0 | 1.6 | 0.00 | 0.00 | 0.00 | 88 | 989.8 |
| 20260502042840 | 7 | 89 | 0.0 | 0.0 | 0.00 | 0.00 | 0.00 | 88 | 989.6 |
| 20260502042337 | 7 | 68 | 0.0 | 0.0 | 0.00 | 0.00 | 0.00 | 87 | 989.6 |
| 20260502041835 | 7 | 89 | 0.0 | 1.6 | 0.00 | 0.00 | 0.00 | 87 | 989.6 |
| 20260502041332 | 7 | 89 | 0.0 | 1.6 | 0.00 | 0.00 | 0.00 | 85 | 989.6 |
| 20260502040829 | 7 | 51 | 0.0 | 1.6 | 0.00 | 0.00 | 0.00 | 85 | 989.7 |
| 20260502040326 | 7 | 60 | 0.0 | 3.2 | 0.00 | 0.00 | 0.00 | 84 | 989.8 |
| 20260502035822 | 7 | 77 | 0.0 | 1.6 | 0.00 | 0.00 | 0.00 | 84 | 989.7 |
| 20260502035319 | 7 | 56 | 1.6 | 3.2 | 0.00 | 0.00 | 0.00 | 83 | 989.9 |
| 20260502034816 | 7 | 74 | 1.6 | 3.2 | 0.00 | 0.00 | 0.00 | 82 | 990.0 |
| 20260502034315 | 8 | 59 | 0.0 | 1.6 | 0.00 | 0.00 | 0.00 | 82 | 989.9 |
| 20260502033813 | 8 | 80 | 0.0 | 1.6 | 0.00 | 0.00 | 0.00 | 81 | 989.7 |
| 20260502033310 | 8 | 89 | 0.0 | 1.6 | 0.00 | 0.00 | 0.00 | 80 | 989.9 |
| 20260502032807 | 8 | 77 | 0.0 | 1.6 | 0.00 | 0.00 | 0.00 | 80 | 989.9 |
| 20260502032305 | 8 | 66 | 0.0 | 1.6 | 0.00 | 0.00 | 0.00 | 79 | 990.0 |
| 20260502031800 | 8 | 76 | 0.0 | 1.6 | 0.00 | 0.00 | 0.00 | 79 | 990.1 |
| 20260502031259 | 8 | 76 | 0.0 | 1.6 | 0.00 | 0.00 | 0.00 | 78 | 989.8 |
| 20260502030757 | 8 | 103 | 0.0 | 0.0 | 0.00 | 0.00 | 0.00 | 78 | 989.8 |
| 20260502030254 | 8 | 103 | 0.0 | 1.6 | 0.00 | 0.00 | 0.00 | 77 | 990.0 |
| 20260502025752 | 9 | 72 | 0.0 | 0.0 | 0.00 | 0.00 | 0.00 | 75 | 990.0 |
| 20260502025250 | 9 | 103 | 0.0 | 3.2 | 0.00 | 0.00 | 0.00 | 74 | 990.0 |
| 20260502024747 | 9 | 110 | 0.0 | 1.6 | 0.00 | 0.00 | 0.00 | 72 | 989.7 |
| 20260502024245 | 9 | 65 | 0.0 | 1.6 | 0.00 | 0.00 | 0.00 | 70 | 990.1 |
| 20260502023743 | 9 | 141 | 0.0 | 1.6 | 0.00 | 0.00 | 0.00 | 68 | 989.8 |
| 20260502023240 | 10 | 43 | 0.0 | 3.2 | 0.00 | 0.00 | 0.00 | 68 | 989.7 |
| 20260502022738 | 10 | 37 | 0.0 | 1.6 | 0.00 | 0.00 | 0.00 | 66 | 989.8 |
| 20260502022233 | 10 | 69 | 0.0 | 1.6 | 0.00 | 0.00 | 0.00 | 66 | 989.8 |
| 20260502021731 | 10 | 58 | 0.0 | 1.6 | 0.00 | 0.00 | 0.00 | 65 | 989.6 |
| 20260502021228 | 10 | 103 | 0.0 | 0.0 | 0.00 | 0.00 | 0.00 | 64 | 989.5 |
| 20260502020725 | 10 | 103 | 0.0 | 1.6 | 0.00 | 0.00 | 0.00 | 61 | 989.4 |
| 20260502020222 | 10 | 89 | 0.0 | 0.0 | 0.00 | 0.00 | 0.00 | 61 | 989.4 |
| 20260502015720 | 11 | 89 | 0.0 | 0.0 | 0.00 | 0.00 | 0.00 | 56 | 989.4 |
| 20260502015216 | 11 | 55 | 0.0 | 1.6 | 0.00 | 0.00 | 0.00 | 56 | 989.4 |
| 20260502014714 | 11 | 64 | 0.0 | 1.6 | 0.00 | 0.00 | 0.00 | 55 | 989.2 |
| 20260502014211 | 11 | 32 | 0.0 | 1.6 | 0.00 | 0.00 | 0.00 | 54 | 989.3 |
| 20260502013707 | 11 | 64 | 1.6 | 1.6 | 0.00 | 0.00 | 0.00 | 52 | 989.1 |
| 20260502013202 | 12 | 60 | 0.0 | 1.6 | 0.00 | 0.00 | 0.00 | 52 | 989.1 |
| 20260502012659 | 12 | 76 | 0.0 | 1.6 | 0.00 | 0.00 | 0.00 | 49 | 988.9 |
| 20260502012157 | 13 | 50 | 0.0 | 1.6 | 0.00 | 0.00 | 0.00 | 48 | 988.9 |
| 20260502011654 | 13 | 129 | 0.0 | 0.0 | 0.00 | 0.00 | 0.00 | 46 | 989.0 |
| 20260502011150 | 13 | 249 | 0.0 | 1.6 | 0.00 | 0.00 | 0.00 | 45 | 988.8 |
| 20260502010648 | 14 | 230 | 0.0 | 0.0 | 0.00 | 0.00 | 0.00 | 42 | 988.8 |
| 20260502010143 | 14 | 50 | 0.0 | 0.0 | 0.00 | 0.00 | 0.00 | 41 | 988.5 |
| 20260502005641 | 15 | 309 | 0.0 | 3.2 | 0.00 | 0.00 | 0.00 | 38 | 988.6 |
| 20260502005139 | 15 | 339 | 1.6 | 4.8 | 0.00 | 0.00 | 0.00 | 38 | 988.4 |
| 20260502004634 | 15 | 0 | 0.0 | 3.2 | 0.00 | 0.00 | 0.00 | 39 | 988.3 |
| 20260502004131 | 15 | 316 | 1.6 | 6.4 | 0.00 | 0.00 | 0.00 | 38 | 988.3 |
| 20260502003629 | 15 | 8 | 1.6 | 4.8 | 0.00 | 0.00 | 0.00 | 38 | 988.0 |
| 20260502003126 | 15 | 3 | 3.2 | 4.8 | 0.00 | 0.00 | 0.00 | 37 | 988.2 |
| 20260502002622 | 15 | 345 | 4.8 | 8.0 | 0.00 | 0.00 | 0.00 | 36 | 988.0 |
| 20260502002120 | 15 | 356 | 4.8 | 11.3 | 0.00 | 0.00 | 0.00 | 35 | 988.1 |
| 20260502001617 | 15 | 346 | 8.0 | 8.0 | 0.00 | 0.00 | 0.00 | 36 | 988.0 |
| 20260502001114 | 16 | 334 | 1.6 | 11.3 | 0.00 | 0.00 | 0.00 | 36 | 987.9 |
| 20260502000613 | 16 | 7 | 4.8 | 11.3 | 0.00 | 0.00 | 0.00 | 34 | 987.9 |
| 20260502000110 | 16 | 352 | 3.2 | 8.0 | 0.00 | 0.00 | 0.00 | 36 | 987.7 |
| 20260501235605 | 16 | 77 | 1.6 | 9.7 | 0.00 | 0.00 | 0.00 | 37 | 988.0 |
| 20260501235102 | 16 | 348 | 1.6 | 14.5 | 0.00 | 0.00 | 0.00 | 35 | 988.0 |
| 20260501234557 | 16 | 344 | 3.2 | 6.4 | 0.00 | 0.00 | 0.00 | 37 | 987.9 |
| 20260501234055 | 16 | 101 | 3.2 | 3.2 | 0.00 | 0.00 | 0.00 | 37 | 988.0 |
| 20260501233553 | 16 | 351 | 3.2 | 6.4 | 0.00 | 0.00 | 0.00 | 34 | 988.2 |
| 20260501233050 | 17 | 325 | 0.0 | 6.4 | 0.00 | 0.00 | 0.00 | 33 | 988.3 |
| 20260501232546 | 17 | 278 | 0.0 | 6.4 | 0.00 | 0.00 | 0.00 | 33 | 988.2 |
| 20260501232043 | 17 | 323 | 4.8 | 8.0 | 0.00 | 0.00 | 0.00 | 33 | 988.3 |
| 20260501231541 | 17 | 329 | 3.2 | 9.7 | 0.00 | 0.00 | 0.00 | 34 | 988.4 |
| 20260501231039 | 17 | 348 | 8.0 | 14.5 | 0.00 | 0.00 | 0.00 | 33 | 988.0 |
| 20260501230538 | 17 | 226 | 3.2 | 8.0 | 0.00 | 0.00 | 0.00 | 34 | 988.0 |
| 20260501230035 | 17 | 345 | 4.8 | 8.0 | 0.00 | 0.00 | 0.00 | 33 | 988.0 |
| 20260501225532 | 17 | 330 | 0.0 | 6.4 | 0.00 | 0.00 | 0.00 | 33 | 987.9 |
| 20260501225028 | 17 | 328 | 3.2 | 12.9 | 0.00 | 0.00 | 0.00 | 37 | 987.9 |
| 20260501224526 | 18 | 16 | 3.2 | 8.0 | 0.00 | 0.00 | 0.00 | 36 | 987.9 |
| 20260501224023 | 17 | 3 | 6.4 | 8.0 | 0.00 | 0.00 | 0.00 | 34 | 988.0 |
| 20260501223519 | 17 | 289 | 6.4 | 14.5 | 0.00 | 0.00 | 0.00 | 34 | 988.2 |
| 20260501223015 | 17 | 334 | 4.8 | 14.5 | 0.00 | 0.00 | 0.00 | 36 | 987.9 |
| 20260501222512 | 18 | 19 | 6.4 | 12.9 | 0.00 | 0.00 | 0.00 | 36 | 988.1 |
| 20260501222009 | 18 | 350 | 8.0 | 12.9 | 0.00 | 0.00 | 0.00 | 35 | 988.0 |
| 20260501221505 | 18 | 8 | 4.8 | 6.4 | 0.00 | 0.00 | 0.00 | 35 | 987.8 |
| 20260501221003 | 17 | 355 | 1.6 | 17.7 | 0.00 | 0.00 | 0.00 | 35 | 988.0 |
| 20260501220500 | 17 | 326 | 4.8 | 17.7 | 0.00 | 0.00 | 0.00 | 34 | 988.0 |
| 20260501215956 | 18 | 351 | 3.2 | 12.9 | 0.00 | 0.00 | 0.00 | 35 | 987.7 |
| 20260501215453 | 17 | 351 | 9.7 | 19.3 | 0.00 | 0.00 | 0.00 | 33 | 987.8 |
| 20260501214949 | 18 | 316 | 8.0 | 14.5 | 0.00 | 0.00 | 0.00 | 32 | 987.9 |
| 20260501214444 | 18 | 306 | 3.2 | 9.7 | 0.00 | 0.00 | 0.00 | 35 | 987.8 |
| 20260501213940 | 17 | 330 | 3.2 | 11.3 | 0.00 | 0.00 | 0.00 | 37 | 987.8 |
| 20260501213438 | 18 | 9 | 3.2 | 6.4 | 0.00 | 0.00 | 0.00 | 36 | 988.1 |
| 20260501212932 | 17 | 313 | 4.8 | 12.9 | 0.00 | 0.00 | 0.00 | 35 | 988.0 |
| 20260501212430 | 18 | 343 | 8.0 | 11.3 | 0.00 | 0.00 | 0.00 | 35 | 988.2 |
| 20260501211926 | 17 | 72 | 3.2 | 12.9 | 0.00 | 0.00 | 0.00 | 38 | 988.4 |
| 20260501211424 | 17 | 231 | 6.4 | 16.1 | 0.00 | 0.00 | 0.00 | 36 | 988.5 |
| 20260501210921 | 17 | 300 | 3.2 | 8.0 | 0.00 | 0.00 | 0.00 | 35 | 988.6 |
| 20260501210418 | 17 | 354 | 6.4 | 19.3 | 0.00 | 0.00 | 0.00 | 32 | 988.7 |
| 20260501205914 | 18 | 355 | 0.0 | 6.4 | 0.00 | 0.00 | 0.00 | 34 | 988.8 |
| 20260501205411 | 18 | 221 | 0.0 | 6.4 | 0.00 | 0.00 | 0.00 | 36 | 988.7 |
| 20260501204909 | 17 | 293 | 0.0 | 4.8 | 0.00 | 0.00 | 0.00 | 37 | 989.1 |
| 20260501204404 | 17 | 359 | 6.4 | 12.9 | 0.00 | 0.00 | 0.00 | 32 | 989.3 |
| 20260501203900 | 17 | 336 | 8.0 | 16.1 | 0.00 | 0.00 | 0.00 | 37 | 989.4 |
| 20260501203358 | 17 | 357 | 6.4 | 17.7 | 0.00 | 0.00 | 0.00 | 34 | 989.2 |
| 20260501202855 | 17 | 47 | 3.2 | 8.0 | 0.00 | 0.00 | 0.00 | 36 | 989.3 |
| 20260501202352 | 17 | 343 | 4.8 | 19.3 | 0.00 | 0.00 | 0.00 | 36 | 989.5 |
| 20260501201848 | 17 | 283 | 4.8 | 11.3 | 0.00 | 0.00 | 0.00 | 35 | 989.8 |
| 20260501201345 | 17 | 345 | 14.5 | 17.7 | 0.00 | 0.00 | 0.00 | 34 | 989.6 |
| 20260501200842 | 17 | 184 | 0.0 | 9.7 | 0.00 | 0.00 | 0.00 | 35 | 989.7 |
| 20260501200339 | 17 | 241 | 6.4 | 16.1 | 0.00 | 0.00 | 0.00 | 35 | 990.1 |
| 20260501195837 | 17 | 321 | 3.2 | 9.7 | 0.00 | 0.00 | 0.00 | 34 | 989.9 |
| 20260501195332 | 17 | 345 | 3.2 | 11.3 | 0.00 | 0.00 | 0.00 | 37 | 990.0 |
| 20260501194829 | 17 | 11 | 0.0 | 9.7 | 0.00 | 0.00 | 0.00 | 39 | 990.3 |
| 20260501194325 | 17 | 8 | 4.8 | 9.7 | 0.00 | 0.00 | 0.00 | 36 | 990.2 |
| 20260501193821 | 18 | 308 | 4.8 | 8.0 | 0.00 | 0.00 | 0.00 | 41 | 990.2 |
| 20260501193320 | 17 | 303 | 3.2 | 8.0 | 0.00 | 0.00 | 0.00 | 39 | 990.4 |
| 20260501192817 | 17 | 232 | 1.6 | 9.7 | 0.00 | 0.00 | 0.00 | 36 | 990.2 |
| 20260501192314 | 17 | 36 | 6.4 | 11.3 | 0.00 | 0.00 | 0.00 | 36 | 990.4 |
| 20260501191811 | 17 | 308 | 3.2 | 9.7 | 0.00 | 0.00 | 0.00 | 43 | 990.3 |
| 20260501191309 | 17 | 324 | 0.0 | 9.7 | 0.00 | 0.00 | 0.00 | 36 | 990.7 |
| 20260501190805 | 16 | 341 | 14.5 | 20.9 | 0.00 | 0.00 | 0.00 | 36 | 990.3 |
| 20260501190301 | 17 | 5 | 3.2 | 6.4 | 0.00 | 0.00 | 0.00 | 36 | 990.5 |
| 20260501185756 | 17 | 343 | 1.6 | 9.7 | 0.00 | 0.00 | 0.00 | 37 | 990.5 |
| 20260501185252 | 16 | 347 | 4.8 | 11.3 | 0.00 | 0.00 | 0.00 | 33 | 990.3 |
| 20260501184749 | 17 | 359 | 8.0 | 12.9 | 0.00 | 0.00 | 0.00 | 33 | 990.6 |
| 20260501184244 | 17 | 311 | 6.4 | 9.7 | 0.00 | 0.00 | 0.00 | 30 | 990.5 |
| 20260501183740 | 17 | 295 | 8.0 | 14.5 | 0.00 | 0.00 | 0.00 | 31 | 990.6 |